FW9840 Weather Reports


time (UTC)temp
C
wind
direction
speed
KPH
gust
KPH
rain 1hr
cm
rain 24hr
cm
rain mn
cm
humidity
%
barometer
mb
20260906125527 22 0 0.0 1.6 0.00 0.08 0.08 92 1016.3
20260906125025 22 0 0.0 1.6 0.00 0.08 0.08 93 1016.2
20260906124548 22 0 0.0 0.0 0.00 0.08 0.08 94 1016.3
20260906124026 22 0 0.0 0.0 0.00 0.08 0.08 94 1016.2
20260906123526 21 0 0.0 0.0 0.00 0.08 0.08 95 1016.1
20260906123058 21 0 0.0 0.0 0.00 0.08 0.08 95 1016.1
20260906122528 21 0 0.0 0.0 0.00 0.08 0.08 95 1016.1
20260906122030 21 0 0.0 0.0 0.00 0.08 0.08 96 1016.1
20260906121555 21 0 0.0 1.6 0.00 0.08 0.08 96 1016.0
20260906121024 21 0 0.0 1.6 0.00 0.08 0.08 96 1016.0
20260906120525 21 0 0.0 1.6 0.00 0.08 0.08 96 1015.8
20260906120045 21 0 0.0 1.6 0.00 0.08 0.08 96 1015.7
20260906115532 21 0 0.0 1.6 0.00 0.08 0.08 96 1015.8
20260906115027 21 244 0.0 0.0 0.00 0.08 0.08 96 1015.6
20260906114559 21 0 0.0 1.6 0.00 0.08 0.08 96 1015.6
20260906114026 21 0 0.0 3.2 0.00 0.08 0.08 95 1015.6
20260906113529 21 244 0.0 3.2 0.00 0.08 0.08 95 1015.6
20260906113101 21 244 0.0 0.0 0.00 0.08 0.08 94 1015.6
20260906112526 21 0 0.0 3.2 0.00 0.08 0.08 94 1015.5
20260906112024 21 0 0.0 3.2 0.00 0.08 0.08 94 1015.5
20260906111545 21 0 1.6 3.2 0.00 0.08 0.08 94 1015.5
20260906111027 21 244 1.6 3.2 0.00 0.08 0.08 94 1015.4
20260906110529 21 244 0.0 3.2 0.00 0.08 0.08 94 1015.4
20260906110044 21 0 0.0 3.2 0.00 0.08 0.08 94 1015.4
20260906105526 21 0 0.0 3.2 0.00 0.08 0.08 94 1015.3
20260906105028 21 0 0.0 3.2 0.00 0.08 0.08 94 1015.3
20260906104550 21 244 0.0 3.2 0.00 0.08 0.08 94 1015.3
20260906104028 21 0 0.0 3.2 0.00 0.08 0.08 94 1015.3
20260906103525 21 0 0.0 3.2 0.00 0.08 0.08 94 1015.3
20260906103047 21 0 0.0 3.2 0.00 0.08 0.08 94 1015.2
20260906102525 21 244 1.6 3.2 0.00 0.08 0.08 94 1015.3
20260906102024 21 0 0.0 3.2 0.00 0.08 0.08 93 1015.3
20260906101602 21 0 0.0 3.2 0.00 0.08 0.08 93 1015.3
20260906101031 21 244 0.0 1.6 0.00 0.08 0.08 93 1015.2
20260906100525 21 0 0.0 1.6 0.00 0.08 0.08 93 1015.3
20260906100043 21 0 0.0 3.2 0.00 0.08 0.08 93 1015.2
20260906095528 21 0 0.0 3.2 0.00 0.08 0.08 92 1015.2
20260906095028 21 0 0.0 3.2 0.00 0.08 0.08 92 1015.4
20260906094552 21 0 0.0 1.6 0.00 0.08 0.08 92 1015.4
20260906094031 21 340 0.0 1.6 0.00 0.08 0.08 92 1015.5
20260906093529 21 0 0.0 4.8 0.00 0.08 0.08 91 1015.5
20260906093048 21 0 0.0 4.8 0.00 0.08 0.08 91 1015.5
20260906092529 21 0 1.6 8.0 0.00 0.08 0.08 91 1015.5
20260906092029 21 355 1.6 11.3 0.00 0.08 0.08 91 1015.6
20260906091548 21 0 3.2 11.3 0.00 0.08 0.08 92 1015.6
20260906091031 21 0 1.6 9.7 0.00 0.08 0.08 92 1015.7
20260906090528 21 217 1.6 9.7 0.00 0.08 0.08 92 1015.6
20260906090056 21 204 1.6 8.0 0.00 0.08 0.08 92 1015.5
20260906085528 21 207 4.8 8.0 0.00 0.08 0.08 92 1015.6
20260906085028 21 216 1.6 8.0 0.00 0.08 0.08 92 1015.5
20260906084550 21 167 0.0 4.8 0.00 0.08 0.08 92 1015.5
20260906084030 21 0 0.0 3.2 0.00 0.08 0.08 92 1015.4
20260906083528 21 0 0.0 3.2 0.00 0.08 0.08 91 1015.5
20260906083047 21 0 0.0 3.2 0.00 0.08 0.08 91 1015.4
20260906082525 21 241 0.0 3.2 0.00 0.08 0.08 91 1015.4
20260906082029 21 241 0.0 9.7 0.00 0.08 0.08 91 1015.5
20260906081549 21 240 0.0 16.1 0.00 0.08 0.08 91 1015.6
20260906081028 21 252 3.2 16.1 0.00 0.08 0.08 90 1015.7
20260906080530 21 335 6.4 16.1 0.00 0.08 0.08 90 1015.8
20260906080046 21 298 3.2 6.4 0.00 0.08 0.08 90 1015.6
20260906075526 21 313 1.6 14.5 0.00 0.08 0.08 90 1015.3
20260906075026 21 0 0.0 14.5 0.00 0.08 0.08 91 1015.2
20260906074557 21 57 4.8 14.5 0.00 0.08 0.08 91 1015.2
20260906074028 21 62 1.6 8.0 0.00 0.08 0.08 91 1015.3
20260906073531 21 0 1.6 8.0 0.00 0.08 0.08 91 1015.5
20260906073048 21 0 1.6 9.7 0.00 0.08 0.08 91 1015.5
20260906072526 21 0 3.2 12.9 0.00 0.08 0.08 91 1015.5
20260906072029 21 187 1.6 12.9 0.00 0.08 0.08 91 1015.6
20260906071548 21 110 4.8 12.9 0.00 0.08 0.08 91 1015.6
20260906071029 21 177 1.6 11.3 0.00 0.08 0.08 91 1015.8
20260906070532 21 135 1.6 11.3 0.00 0.08 0.08 91 1015.9
20260906070047 21 121 1.6 11.3 0.00 0.08 0.08 91 1015.9
20260906065529 21 0 0.0 4.8 0.00 0.08 0.08 90 1015.9
20260906065029 21 88 1.6 9.7 0.00 0.08 0.08 90 1015.9
20260906064545 21 283 1.6 9.7 0.00 0.08 0.08 90 1015.9
20260906064031 21 205 3.2 16.1 0.03 0.08 0.08 90 1015.9
20260906063528 21 94 3.2 16.1 0.03 0.08 0.08 90 1015.9
20260906063051 21 208 6.4 16.1 0.08 0.08 0.08 91 1015.8
20260906062529 21 140 0.0 11.3 0.08 0.08 0.08 92 1016.0
20260906062026 21 140 1.6 11.3 0.08 0.08 0.08 91 1016.0
20260906061550 22 146 1.6 9.7 0.08 0.08 0.08 91 1016.0
20260906061027 22 133 1.6 11.3 0.08 0.08 0.08 91 1016.3
20260906060529 22 137 1.6 14.5 0.08 0.08 0.08 91 1016.2
20260906060108 22 116 1.6 14.5 0.08 0.08 0.08 91 1016.0
20260906055528 22 73 3.2 20.9 0.08 0.08 0.08 90 1016.0
20260906055028 22 148 6.4 20.9 0.08 0.08 0.08 90 1016.0
20260906054554 22 173 6.4 17.7 0.08 0.08 0.08 90 1016.1
20260906054026 22 162 3.2 14.5 0.05 0.05 0.05 88 1016.4
20260906053530 22 139 4.8 19.3 0.03 0.03 0.03 87 1016.5
20260906053047 23 107 4.8 19.3 0.00 0.00 0.00 86 1016.4
20260906052536 23 96 6.4 16.1 0.00 0.00 0.00 86 1016.6
20260906052026 23 69 4.8 17.7 0.00 0.00 0.00 85 1017.3
20260906051546 24 58 3.2 17.7 0.00 0.00 0.00 84 1016.8
20260906051028 25 63 4.8 14.5 0.00 0.00 0.00 82 1016.7
20260906050527 25 41 4.8 8.0 0.00 0.00 0.00 81 1017.2
20260906050110 25 72 1.6 6.4 0.00 0.00 0.00 79 1016.3
20260906045531 25 90 1.6 6.4 0.00 0.00 0.00 79 1016.0
20260906045029 25 92 1.6 3.2 0.00 0.00 0.00 79 1016.0
20260906044551 25 54 1.6 3.2 0.00 0.00 0.00 79 1016.1
20260906044030 25 54 0.0 6.4 0.00 0.00 0.00 79 1016.0
20260906043526 25 0 1.6 6.4 0.00 0.00 0.00 80 1016.0
20260906043047 25 155 1.6 3.2 0.00 0.00 0.00 80 1015.9
20260906042525 25 155 0.0 3.2 0.00 0.00 0.00 78 1015.5
20260906042026 25 0 0.0 3.2 0.00 0.00 0.00 78 1015.5
20260906041547 25 0 0.0 8.0 0.00 0.00 0.00 79 1015.5
20260906041029 25 155 0.0 8.0 0.00 0.00 0.00 79 1015.6
20260906040528 25 220 0.0 3.2 0.00 0.00 0.00 80 1015.6
20260906040047 25 0 0.0 3.2 0.00 0.00 0.00 80 1015.6
20260906035533 25 137 0.0 3.2 0.00 0.00 0.00 79 1015.6
20260906035029 25 0 0.0 1.6 0.00 0.00 0.00 81 1015.7
20260906034558 25 0 0.0 3.2 0.00 0.00 0.00 81 1015.8
20260906034028 25 0 0.0 6.4 0.00 0.00 0.00 80 1015.8
20260906033527 25 0 0.0 8.0 0.00 0.00 0.00 80 1015.7
20260906033047 25 202 0.0 8.0 0.00 0.00 0.00 79 1015.7
20260906032527 25 209 0.0 1.6 0.00 0.00 0.00 80 1015.6
20260906032031 25 0 0.0 3.2 0.00 0.00 0.00 79 1015.4
20260906031608 25 0 0.0 3.2 0.00 0.00 0.00 79 1015.4
20260906031029 25 209 0.0 1.6 0.00 0.00 0.00 78 1015.5
20260906030528 25 0 0.0 0.0 0.00 0.00 0.00 78 1015.5
20260906030045 25 0 0.0 0.0 0.00 0.00 0.00 77 1015.5
20260906025531 26 0 0.0 0.0 0.00 0.00 0.00 77 1015.4
20260906025031 26 0 0.0 0.0 0.00 0.00 0.00 76 1015.3
20260906024555 26 0 0.0 0.0 0.00 0.00 0.00 76 1015.2
20260906024026 26 0 0.0 0.0 0.00 0.00 0.00 76 1015.2
20260906023526 26 0 0.0 0.0 0.00 0.00 0.00 75 1015.1
20260906023105 26 0 0.0 0.0 0.00 0.00 0.00 75 1015.1
20260906022528 26 0 0.0 0.0 0.00 0.00 0.00 75 1015.0
20260906022029 26 0 0.0 1.6 0.00 0.00 0.00 74 1014.9
20260906021546 26 0 0.0 1.6 0.00 0.00 0.00 73 1014.8
20260906021028 27 0 0.0 3.2 0.00 0.00 0.00 72 1014.6
20260906020531 27 0 0.0 3.2 0.00 0.00 0.00 71 1014.5
20260906020058 27 209 0.0 4.8 0.00 0.00 0.00 70 1014.4
20260906015528 27 0 0.0 4.8 0.00 0.00 0.00 69 1014.3
20260906015028 28 0 1.6 4.8 0.00 0.00 0.00 68 1014.3
20260906014548 28 209 0.0 3.2 0.00 0.00 0.00 68 1014.2
20260906014029 28 0 0.0 6.4 0.00 0.00 0.00 67 1014.2
20260906013534 28 0 0.0 6.4 0.00 0.00 0.00 66 1014.2
20260906013047 28 0 1.6 6.4 0.00 0.00 0.00 66 1014.2
20260906012529 28 212 1.6 6.4 0.00 0.00 0.00 65 1014.2
20260906012029 29 0 0.0 3.2 0.00 0.00 0.00 65 1014.5
20260906011605 29 0 0.0 11.3 0.00 0.00 0.00 65 1014.5
20260906011027 29 187 0.0 11.3 0.00 0.00 0.00 64 1014.3
20260906010529 29 126 1.6 8.0 0.00 0.00 0.00 64 1014.5
20260906010055 29 65 4.8 8.0 0.00 0.00 0.00 63 1015.0
20260906005527 30 0 0.0 3.2 0.00 0.00 0.00 63 1014.6
20260906005029 30 0 0.0 6.4 0.00 0.00 0.00 62 1014.8
20260906004559 30 0 0.0 6.4 0.00 0.00 0.00 61 1014.5
20260906004031 30 81 0.0 6.4 0.00 0.00 0.00 61 1014.4
20260906003529 30 186 1.6 11.3 0.00 0.00 0.00 62 1014.2
20260906003056 30 212 3.2 11.3 0.00 0.00 0.00 62 1014.1
20260906002529 30 124 1.6 4.8 0.00 0.00 0.00 63 1014.1
20260906002027 31 0 0.0 6.4 0.00 0.00 0.00 62 1014.1
20260906001554 31 0 0.0 6.4 0.00 0.00 0.00 60 1014.1
20260906001028 31 98 0.0 4.8 0.00 0.00 0.00 60 1014.2
20260906000526 31 97 0.0 3.2 0.00 0.00 0.00 58 1014.1
20260906000059 31 0 0.0 0.0 0.00 0.00 0.00 58 1014.1
20260905235530 32 0 0.0 1.6 0.00 0.00 0.00 57 1014.1
20260905235028 32 0 0.0 3.2 0.00 0.00 0.00 56 1014.0
20260905234549 32 0 0.0 3.2 0.00 0.00 0.00 56 1014.0
20260905234027 33 275 0.0 3.2 0.00 0.00 0.00 55 1014.0
20260905233530 33 275 0.0 3.2 0.00 0.00 0.00 54 1014.1
20260905233050 33 0 0.0 4.8 0.00 0.00 0.00 53 1014.1
20260905232529 34 274 0.0 4.8 0.00 0.00 0.00 53 1014.0
20260905232034 34 0 1.6 4.8 0.00 0.00 0.00 51 1013.9
20260905231603 34 0 0.0 1.6 0.00 0.00 0.00 51 1013.9
20260905231031 35 0 0.0 4.8 0.00 0.00 0.00 51 1013.9
20260905230526 35 0 0.0 4.8 0.00 0.00 0.00 50 1013.9
20260905230048 35 0 0.0 4.8 0.00 0.00 0.00 50 1013.9
20260905225526 35 0 0.0 6.4 0.00 0.00 0.00 49 1013.9
20260905225028 35 0 1.6 6.4 0.00 0.00 0.00 48 1013.9
20260905224555 36 287 0.0 6.4 0.00 0.00 0.00 48 1013.9
20260905224034 36 0 0.0 8.0 0.00 0.00 0.00 48 1013.9
20260905223529 36 0 0.0 8.0 0.00 0.00 0.00 48 1014.0
20260905223056 36 0 1.6 8.0 0.00 0.00 0.00 49 1014.0
20260905222529 36 0 0.0 8.0 0.00 0.00 0.00 50 1013.9
20260905222032 35 344 1.6 6.4 0.00 0.00 0.00 49 1014.0
20260905221601 36 261 1.6 8.0 0.00 0.00 0.00 49 1014.0
20260905221026 36 257 3.2 9.7 0.00 0.00 0.00 48 1013.9
20260905220526 36 34 3.2 9.7 0.00 0.00 0.00 49 1013.9
20260905220049 36 282 1.6 12.9 0.00 0.00 0.00 49 1014.0
20260905215532 36 296 3.2 12.9 0.00 0.00 0.00 48 1014.0
20260905215028 36 258 3.2 9.7 0.00 0.00 0.00 48 1013.9
20260905214602 36 295 1.6 9.7 0.00 0.00 0.00 49 1014.0
20260905214029 36 0 1.6 9.7 0.00 0.00 0.00 50 1014.0
20260905213529 36 217 3.2 9.7 0.00 0.00 0.00 49 1014.1
20260905213054 36 219 4.8 12.9 0.00 0.00 0.00 48 1014.0
20260905212529 36 299 3.2 12.9 0.00 0.00 0.00 49 1014.1
20260905212028 36 285 3.2 11.3 0.00 0.00 0.00 49 1014.1
20260905211549 36 269 1.6 11.3 0.00 0.00 0.00 48 1014.2
20260905211028 36 223 3.2 9.7 0.00 0.00 0.00 48 1014.1
20260905210527 36 5 3.2 9.7 0.00 0.00 0.00 47 1014.1
20260905210050 36 90 1.6 8.0 0.00 0.00 0.00 47 1014.1
20260905205536 36 281 1.6 8.0 0.00 0.00 0.00 48 1014.1
20260905205052 36 302 1.6 12.9 0.00 0.00 0.00 48 1014.2
20260905204556 36 296 3.2 12.9 0.00 0.00 0.00 48 1014.2
20260905204031 36 301 1.6 12.9 0.00 0.00 0.00 48 1014.3
20260905203528 36 340 3.2 12.9 0.00 0.00 0.00 47 1014.4
20260905203051 37 43 1.6 6.4 0.00 0.00 0.00 47 1014.5
20260905202526 36 153 0.0 8.0 0.00 0.00 0.00 46 1014.5
20260905202030 36 340 1.6 8.0 0.00 0.00 0.00 46 1014.8
20260905201557 36 93 4.8 9.7 0.00 0.00 0.00 47 1014.9
20260905201028 36 51 3.2 12.9 0.00 0.00 0.00 46 1015.0
20260905200530 36 59 3.2 12.9 0.00 0.00 0.00 47 1015.0
20260905200127 36 253 3.2 12.9 0.00 0.00 0.00 46 1015.2
20260905195528 36 277 1.6 16.1 0.00 0.00 0.00 47 1015.2
20260905195027 36 55 3.2 16.1 0.00 0.00 0.00 48 1015.3
20260905194552 36 63 1.6 14.5 0.00 0.00 0.00 47 1015.3
20260905194027 36 148 1.6 8.0 0.00 0.00 0.00 45 1015.3
20260905193530 36 61 1.6 9.7 0.00 0.00 0.00 47 1015.5
20260905193047 36 0 3.2 9.7 0.00 0.00 0.00 47 1015.5
20260905192532 36 122 4.8 11.3 0.00 0.00 0.00 49 1015.5
20260905192028 36 53 1.6 14.5 0.00 0.00 0.00 50 1015.6
20260905191558 36 0 1.6 14.5 0.00 0.00 0.00 49 1015.7
20260905191029 36 331 3.2 9.7 0.00 0.00 0.00 49 1015.7
20260905190529 36 0 1.6 9.7 0.00 0.00 0.00 49 1015.7
20260905190100 35 41 3.2 12.9 0.00 0.00 0.00 50 1015.8
20260905185526 35 278 4.8 12.9 0.00 0.00 0.00 51 1015.8
20260905185031 35 309 3.2 11.3 0.00 0.00 0.00 51 1016.0
20260905184600 35 262 1.6 9.7 0.00 0.00 0.00 54 1016.0
20260905184028 35 5 1.6 6.4 0.00 0.00 0.00 55 1016.1
20260905183528 34 279 1.6 8.0 0.00 0.00 0.00 54 1016.1
20260905183048 35 330 3.2 8.0 0.00 0.00 0.00 53 1016.3
20260905182528 35 9 3.2 11.3 0.00 0.00 0.00 53 1016.4
20260905182029 35 355 1.6 11.3 0.00 0.00 0.00 53 1016.5
20260905181557 35 221 3.2 11.3 0.00 0.00 0.00 51 1016.5
20260905181029 35 36 1.6 8.0 0.00 0.00 0.00 51 1016.6
20260905180529 35 109 0.0 12.9 0.00 0.00 0.00 52 1016.6
20260905180112 35 314 4.8 12.9 0.00 0.00 0.00 52 1016.7
20260905175529 35 251 1.6 8.0 0.00 0.00 0.00 50 1016.7
20260905175029 35 329 1.6 6.4 0.00 0.00 0.00 53 1016.7
20260905174550 35 0 1.6 8.0 0.00 0.00 0.00 53 1016.8
20260905174029 35 42 1.6 8.0 0.00 0.00 0.00 53 1016.8
20260905173528 35 19 3.2 6.4 0.00 0.00 0.00 54 1016.9
20260905173114 35 46 1.6 6.4 0.00 0.00 0.00 54 1016.8
20260905172528 35 67 1.6 6.4 0.00 0.00 0.00 54 1017.0
20260905172030 35 0 0.0 6.4 0.00 0.00 0.00 55 1016.8
20260905171558 34 5 3.2 8.0 0.00 0.00 0.00 55 1016.9
20260905171028 34 355 3.2 8.0 0.00 0.00 0.00 56 1017.0
20260905170529 34 281 3.2 8.0 0.00 0.00 0.00 56 1017.0
20260905170055 34 360 3.2 8.0 0.00 0.00 0.00 57 1017.1
20260905165528 34 44 1.6 9.7 0.00 0.00 0.00 57 1017.1
20260905165028 34 32 1.6 9.7 0.00 0.00 0.00 56 1017.2
20260905164555 34 54 0.0 8.0 0.00 0.00 0.00 57 1017.3
20260905164029 34 67 1.6 4.8 0.00 0.00 0.00 58 1017.3
20260905163528 34 360 0.0 4.8 0.00 0.00 0.00 58 1017.4
20260905163048 33 46 1.6 4.8 0.00 0.00 0.00 59 1017.5
20260905162528 33 98 0.0 8.0 0.00 0.00 0.00 60 1017.4
20260905162028 33 0 1.6 8.0 0.00 0.00 0.00 60 1017.5
20260905161559 33 276 3.2 8.0 0.00 0.00 0.00 60 1017.5
20260905161029 33 76 1.6 4.8 0.00 0.00 0.00 61 1017.6
20260905160529 33 340 0.0 11.3 0.00 0.00 0.00 62 1017.6
20260905160100 32 69 1.6 11.3 0.00 0.00 0.00 62 1017.6
20260905155531 32 0 0.0 4.8 0.00 0.00 0.00 65 1017.6
20260905155028 31 44 1.6 6.4 0.00 0.00 0.00 66 1017.7
20260905154552 31 259 1.6 6.4 0.00 0.00 0.00 67 1017.7
20260905154030 31 311 3.2 6.4 0.00 0.00 0.00 68 1017.7
20260905153529 30 168 1.6 6.4 0.00 0.00 0.00 70 1017.7
20260905153047 30 165 1.6 6.4 0.00 0.00 0.00 71 1017.7
20260905152525 30 232 0.0 4.8 0.00 0.00 0.00 73 1017.8
20260905152025 29 250 1.6 4.8 0.00 0.00 0.00 73 1017.8
20260905151547 29 250 0.0 3.2 0.00 0.00 0.00 76 1017.8
20260905151031 28 0 0.0 4.8 0.00 0.00 0.00 75 1017.8
20260905150527 28 248 0.0 4.8 0.00 0.00 0.00 76 1017.8
20260905150053 28 0 0.0 4.8 0.00 0.00 0.00 78 1017.9
20260905145528 28 0 1.6 4.8 0.00 0.00 0.00 77 1018.0
20260905145026 28 0 1.6 4.8 0.00 0.00 0.00 78 1018.0
20260905144549 27 0 0.0 4.8 0.00 0.00 0.00 79 1018.0
20260905144027 27 0 0.0 0.0 0.00 0.00 0.00 79 1018.0
20260905143528 27 0 0.0 0.0 0.00 0.00 0.00 80 1018.0
20260905143047 27 0 0.0 0.0 0.00 0.00 0.00 81 1018.0
20260905142527 27 0 0.0 1.6 0.00 0.00 0.00 81 1017.9
20260905142028 26 0 0.0 1.6 0.00 0.00 0.00 83 1018.0
20260905141546 26 0 0.0 3.2 0.00 0.00 0.00 84 1017.9
20260905141029 26 0 0.0 3.2 0.00 0.00 0.00 85 1018.0
20260905140531 26 0 0.0 1.6 0.00 0.00 0.00 86 1018.0
20260905135527 25 0 0.0 0.0 0.00 0.00 0.00 87 1018.0
20260905135026 25 0 0.0 0.0 0.00 0.00 0.00 88 1017.9
20260905134557 25 0 0.0 0.0 0.00 0.00 0.00 88 1017.9
20260905134029 25 0 0.0 0.0 0.00 0.00 0.00 89 1017.9
20260905133527 25 0 0.0 0.0 0.00 0.00 0.00 90 1018.0
20260905133058 25 0 0.0 0.0 0.00 0.00 0.00 90 1018.0
20260905132525 24 0 0.0 0.0 0.00 0.00 0.00 91 1018.0
20260905132028 24 0 0.0 0.0 0.00 0.00 0.00 91 1018.0
20260905131552 23 0 0.0 0.0 0.00 0.00 0.00 92 1018.1
20260905131027 23 0 0.0 0.0 0.00 0.00 0.00 93 1018.0
20260905130529 23 0 0.0 0.0 0.00 0.00 0.00 94 1018.2
20260905130055 23 0 0.0 0.0 0.00 0.00 0.00 94 1018.2